Location: Courçay
(47.2523°N, 0.8761°E)
Time: 02:03:36
(UTC+00:00)

CORIOLIS - Pass Details

Date: 18 November 2025
Orbit: 815 x 836 km, 98.7° (Epoch: 04 December)

Event Time Altitude Azimuth Distance (km) Brightness Sun altitude
Rises 17:12:10 0° 164° (SSE) 3,347 7.4 -9.3°
Reaches altitude 10° 17:14:31 10° 165° (SSE) 2,415 6.6 -9.7°
Maximum altitude 17:19:52 87° 255° (WSW) 828 4.2 -10.5°
Drops below altitude 10° 17:25:15 10° 345° (NNW) 2,421 6.6 -11.4°
Sets 17:27:36 0° 346° (NNW) 3,356 7.3 -11.8°
